Time,TemperatureF,DewpointF,PressureIn,WindDirection,WindDirectionDegrees,WindSpeedMPH,WindSpeedGustMPH,Humidity,HourlyPrecipIn,Conditions,Clouds,dailyrainin,SoftwareType,DateUTC
2013-09-13 00:10:00,54.1,49.7,29.91,North,0,0.0,-999.0,85,-99.99,,,0.00,Acu-Link.com,2013-09-13 05:10:00,
2013-09-13 00:25:00,54.0,49.9,29.91,North,0,1.1,-999.0,86,-99.99,,,0.00,Acu-Link.com,2013-09-13 05:25:00,
2013-09-13 00:40:00,53.6,49.8,29.92,North,0,0.0,-999.0,87,-99.99,,,0.00,Acu-Link.com,2013-09-13 05:40:00,
2013-09-13 00:55:00,53.2,50.0,29.92,North,0,0.0,-999.0,89,-99.99,,,0.00,Acu-Link.com,2013-09-13 05:55:00,
2013-09-13 01:10:00,52.7,49.2,29.92,North,0,0.0,-999.0,88,-99.99,,,0.00,Acu-Link.com,2013-09-13 06:10:00,
2013-09-13 01:26:00,52.9,49.1,29.92,North,0,0.0,-999.0,87,-99.99,,,0.00,Acu-Link.com,2013-09-13 06:26:00,
2013-09-13 01:41:00,53.1,49.0,29.92,North,0,0.0,-999.0,86,-99.99,,,0.00,Acu-Link.com,2013-09-13 06:41:00,
2013-09-13 01:56:00,52.5,49.0,29.92,North,0,0.0,-999.0,88,-99.99,,,0.00,Acu-Link.com,2013-09-13 06:56:00,
2013-09-13 02:11:00,52.0,48.9,29.93,North,0,0.0,-999.0,89,-99.99,,,0.00,Acu-Link.com,2013-09-13 07:11:00,
2013-09-13 02:27:00,51.6,48.5,29.92,North,0,0.0,-999.0,89,-99.99,,,0.00,Acu-Link.com,2013-09-13 07:27:00,
2013-09-13 02:43:00,51.4,48.3,29.92,North,0,0.0,-999.0,89,-99.99,,,0.00,Acu-Link.com,2013-09-13 07:43:00,
2013-09-13 02:58:00,50.7,47.9,29.92,North,0,0.0,-999.0,90,-99.99,,,0.00,Acu-Link.com,2013-09-13 07:58:00,
2013-09-13 03:14:00,50.5,48.0,29.93,North,0,0.0,-999.0,91,-99.99,,,0.00,Acu-Link.com,2013-09-13 08:14:00,
2013-09-13 03:29:00,50.4,47.9,29.92,North,0,0.0,-999.0,91,-99.99,,,0.00,Acu-Link.com,2013-09-13 08:29:00,
2013-09-13 03:44:00,50.2,47.7,29.92,North,0,0.0,-999.0,91,-99.99,,,0.00,Acu-Link.com,2013-09-13 08:44:00,
2013-09-13 03:59:00,50.2,47.7,29.92,North,0,0.0,-999.0,91,-99.99,,,0.00,Acu-Link.com,2013-09-13 08:59:00,
2013-09-13 04:14:00,50.4,47.6,29.92,North,0,0.0,-999.0,90,-99.99,,,0.00,Acu-Link.com,2013-09-13 09:14:00,
2013-09-13 04:30:00,50.2,47.7,29.93,North,0,0.0,-999.0,91,-99.99,,,0.00,Acu-Link.com,2013-09-13 09:30:00,
2013-09-13 04:45:00,49.6,47.4,29.93,North,0,0.0,-999.0,92,-99.99,,,0.00,Acu-Link.com,2013-09-13 09:45:00,
2013-09-13 05:01:00,49.5,47.3,29.94,North,0,0.0,-999.0,92,-99.99,,,0.00,Acu-Link.com,2013-09-13 10:01:00,
2013-09-13 05:16:00,49.6,47.4,29.94,North,0,0.0,-999.0,92,-99.99,,,0.00,Acu-Link.com,2013-09-13 10:16:00,
2013-09-13 05:31:00,49.6,47.1,29.94,North,0,0.0,-999.0,91,-99.99,,,0.00,Acu-Link.com,2013-09-13 10:31:00,
2013-09-13 05:46:00,49.3,47.1,29.94,North,0,0.0,-999.0,92,-99.99,,,0.00,Acu-Link.com,2013-09-13 10:46:00,
2013-09-13 06:01:00,48.9,46.7,29.95,North,0,0.0,-999.0,92,-99.99,,,0.00,Acu-Link.com,2013-09-13 11:01:00,
2013-09-13 06:17:00,48.4,46.8,29.96,North,0,0.0,-999.0,94,-99.99,,,0.00,Acu-Link.com,2013-09-13 11:17:00,
2013-09-13 06:32:00,48.0,46.4,29.96,North,0,0.0,-999.0,94,-99.99,,,0.00,Acu-Link.com,2013-09-13 11:32:00,
2013-09-13 06:47:00,47.7,46.3,29.96,North,0,0.0,-999.0,95,-99.99,,,0.00,Acu-Link.com,2013-09-13 11:47:00,
2013-09-13 07:02:00,47.5,46.1,29.96,North,0,0.0,-999.0,95,-99.99,,,0.00,Acu-Link.com,2013-09-13 12:02:00,
2013-09-13 07:18:00,47.3,45.9,29.97,North,0,0.0,-999.0,95,-99.99,,,0.00,Acu-Link.com,2013-09-13 12:18:00,
2013-09-13 07:33:00,47.8,46.7,29.98,North,0,0.0,-999.0,96,-99.99,,,0.00,Acu-Link.com,2013-09-13 12:33:00,
2013-09-13 07:48:00,49.3,47.6,29.98,North,0,0.0,-999.0,94,-99.99,,,0.00,Acu-Link.com,2013-09-13 12:48:00,
2013-09-13 08:03:00,55.9,49.5,29.98,NNW,337,1.7,-999.0,79,-99.99,,,0.00,Acu-Link.com,2013-09-13 13:03:00,
2013-09-13 08:18:00,58.6,50.3,29.98,SE,135,2.2,-999.0,74,-99.99,,,0.00,Acu-Link.com,2013-09-13 13:18:00,
2013-09-13 08:34:00,60.4,51.0,29.98,ESE,112,2.7,-999.0,71,-99.99,,,0.00,Acu-Link.com,2013-09-13 13:34:00,
2013-09-13 08:49:00,61.7,50.6,29.98,SSE,157,2.7,-999.0,67,-99.99,,,0.00,Acu-Link.com,2013-09-13 13:49:00,
2013-09-13 09:04:00,63.9,51.1,29.98,ENE,67,2.2,-999.0,63,-99.99,,,0.00,Acu-Link.com,2013-09-13 14:04:00,
2013-09-13 09:20:00,60.4,51.0,29.98,SSW,202,1.7,-999.0,71,-99.99,,,0.00,Acu-Link.com,2013-09-13 14:20:00,
2013-09-13 09:35:00,61.0,50.0,29.98,NE,45,3.7,-999.0,67,-99.99,,,0.00,Acu-Link.com,2013-09-13 14:35:00,
2013-09-13 09:51:00,62.2,50.7,29.98,ESE,112,4.7,-999.0,66,-99.99,,,0.00,Acu-Link.com,2013-09-13 14:51:00,
2013-09-13 10:06:00,62.6,49.4,29.99,SSW,202,2.2,-999.0,62,-99.99,,,0.00,Acu-Link.com,2013-09-13 15:06:00,
2013-09-13 10:21:00,64.0,49.8,29.99,NE,45,2.7,-999.0,60,-99.99,,,0.00,Acu-Link.com,2013-09-13 15:21:00,
2013-09-13 10:36:00,64.9,48.8,29.98,SE,135,2.7,-999.0,56,-99.99,,,0.00,Acu-Link.com,2013-09-13 15:36:00,
2013-09-13 10:51:00,64.9,48.8,29.99,ESE,112,3.7,-999.0,56,-99.99,,,0.00,Acu-Link.com,2013-09-13 15:51:00,
2013-09-13 11:07:00,66.0,49.8,29.98,SE,135,2.2,-999.0,56,-99.99,,,0.00,Acu-Link.com,2013-09-13 16:07:00,
2013-09-13 11:22:00,66.6,49.4,29.97,South,180,2.7,-999.0,54,-99.99,,,0.00,Acu-Link.com,2013-09-13 16:22:00,
2013-09-13 11:37:00,66.4,48.7,29.97,ESE,112,3.2,-999.0,53,-99.99,,,0.00,Acu-Link.com,2013-09-13 16:37:00,
2013-09-13 11:52:00,66.7,49.0,29.96,NNW,337,6.3,-999.0,53,-99.99,,,0.00,Acu-Link.com,2013-09-13 16:52:00,
2013-09-13 12:07:00,68.0,48.1,29.96,NNE,22,4.7,-999.0,49,-99.99,,,0.00,Acu-Link.com,2013-09-13 17:07:00,
2013-09-13 12:23:00,68.0,47.0,29.95,ENE,67,2.2,-999.0,47,-99.99,,,0.00,Acu-Link.com,2013-09-13 17:23:00,
2013-09-13 12:38:00,68.5,48.0,29.95,NW,315,1.1,-999.0,48,-99.99,,,0.00,Acu-Link.com,2013-09-13 17:38:00,
2013-09-13 12:53:00,68.4,46.8,29.94,NNW,337,5.8,-999.0,46,-99.99,,,0.00,Acu-Link.com,2013-09-13 17:53:00,
2013-09-13 13:08:00,68.7,47.1,29.94,ESE,112,3.2,-999.0,46,-99.99,,,0.00,Acu-Link.com,2013-09-13 18:08:00,
2013-09-13 13:23:00,70.2,48.4,29.93,NNW,337,4.2,-999.0,46,-99.99,,,0.00,Acu-Link.com,2013-09-13 18:23:00,
2013-09-13 13:39:00,71.2,47.5,29.93,North,0,2.2,-999.0,43,-99.99,,,0.00,Acu-Link.com,2013-09-13 18:39:00,
2013-09-13 13:54:00,71.6,47.3,29.92,North,0,4.2,-999.0,42,-99.99,,,0.00,Acu-Link.com,2013-09-13 18:54:00,
2013-09-13 14:09:00,71.4,48.9,29.91,East,90,4.2,-999.0,45,-99.99,,,0.00,Acu-Link.com,2013-09-13 19:09:00,
2013-09-13 14:24:00,70.7,47.7,29.91,North,0,2.2,-999.0,44,-99.99,,,0.00,Acu-Link.com,2013-09-13 19:24:00,
2013-09-13 14:40:00,72.3,48.5,29.90,SE,135,2.7,-999.0,43,-99.99,,,0.00,Acu-Link.com,2013-09-13 19:40:00,
2013-09-13 14:55:00,73.0,48.5,29.90,SSE,157,2.2,-999.0,42,-99.99,,,0.00,Acu-Link.com,2013-09-13 19:55:00,
2013-09-13 15:10:00,71.2,46.9,29.89,NE,45,4.7,-999.0,42,-99.99,,,0.00,Acu-Link.com,2013-09-13 20:10:00,
2013-09-13 15:25:00,72.3,46.6,29.88,ESE,112,3.7,-999.0,40,-99.99,,,0.00,Acu-Link.com,2013-09-13 20:25:00,
2013-09-13 15:40:00,71.8,46.8,29.88,NNW,337,3.2,-999.0,41,-99.99,,,0.00,Acu-Link.com,2013-09-13 20:40:00,
2013-09-13 15:56:00,70.9,46.7,29.88,North,0,4.2,-999.0,42,-99.99,,,0.00,Acu-Link.com,2013-09-13 20:56:00,
2013-09-13 16:11:00,70.3,45.5,29.87,ESE,112,2.7,-999.0,41,-99.99,,,0.00,Acu-Link.com,2013-09-13 21:11:00,
2013-09-13 16:26:00,72.5,46.8,29.87,North,0,2.7,-999.0,40,-99.99,,,0.00,Acu-Link.com,2013-09-13 21:26:00,
2013-09-13 16:41:00,70.9,46.7,29.87,SSE,157,1.7,-999.0,42,-99.99,,,0.00,Acu-Link.com,2013-09-13 21:41:00,
2013-09-13 16:56:00,71.2,46.3,29.87,ENE,67,1.1,-999.0,41,-99.99,,,0.00,Acu-Link.com,2013-09-13 21:56:00,
2013-09-13 17:12:00,72.0,46.3,29.87,East,90,1.1,-999.0,40,-99.99,,,0.00,Acu-Link.com,2013-09-13 22:12:00,
2013-09-13 17:27:00,71.4,45.8,29.86,NNW,337,4.2,-999.0,40,-99.99,,,0.00,Acu-Link.com,2013-09-13 22:27:00,
2013-09-13 17:42:00,70.2,46.0,29.86,ESE,112,1.7,-999.0,42,-99.99,,,0.00,Acu-Link.com,2013-09-13 22:42:00,
2013-09-13 17:57:00,70.7,46.5,29.85,North,0,0.0,-999.0,42,-99.99,,,0.00,Acu-Link.com,2013-09-13 22:57:00,
2013-09-13 18:12:00,69.4,46.5,29.85,NNE,22,2.2,-999.0,44,-99.99,,,0.00,Acu-Link.com,2013-09-13 23:12:00,
2013-09-13 18:28:00,68.9,46.7,29.85,North,0,1.1,-999.0,45,-99.99,,,0.00,Acu-Link.com,2013-09-13 23:28:00,
2013-09-13 18:43:00,68.5,47.5,29.85,North,0,0.0,-999.0,47,-99.99,,,0.00,Acu-Link.com,2013-09-13 23:43:00,
2013-09-13 18:58:00,67.6,48.3,29.84,North,0,0.0,-999.0,50,-99.99,,,0.00,Acu-Link.com,2013-09-13 23:58:00,
2013-09-13 19:13:00,66.4,48.7,29.83,North,0,0.0,-999.0,53,-99.99,,,0.00,Acu-Link.com,2013-09-14 00:13:00,
2013-09-13 19:29:00,64.9,48.3,29.84,North,0,0.0,-999.0,55,-99.99,,,0.00,Acu-Link.com,2013-09-14 00:29:00,
2013-09-13 19:44:00,63.0,48.9,29.83,North,0,0.0,-999.0,60,-99.99,,,0.00,Acu-Link.com,2013-09-14 00:44:00,
2013-09-13 19:59:00,61.7,48.5,29.84,North,0,0.0,-999.0,62,-99.99,,,0.00,Acu-Link.com,2013-09-14 00:59:00,
2013-09-13 20:14:00,60.6,48.4,29.84,North,0,0.0,-999.0,64,-99.99,,,0.00,Acu-Link.com,2013-09-14 01:14:00,
2013-09-13 20:30:00,59.5,48.5,29.85,North,0,0.0,-999.0,67,-99.99,,,0.00,Acu-Link.com,2013-09-14 01:30:00,
2013-09-13 20:45:00,59.0,48.1,29.84,North,0,0.0,-999.0,67,-99.99,,,0.00,Acu-Link.com,2013-09-14 01:45:00,
2013-09-13 21:01:00,58.6,47.3,29.84,North,0,0.0,-999.0,66,-99.99,,,0.00,Acu-Link.com,2013-09-14 02:01:00,
2013-09-13 21:16:00,58.3,47.4,29.85,North,0,0.0,-999.0,67,-99.99,,,0.00,Acu-Link.com,2013-09-14 02:16:00,
2013-09-13 21:32:00,57.7,46.8,29.84,NNW,337,0.0,-999.0,67,-99.99,,,0.00,Acu-Link.com,2013-09-14 02:32:00,
2013-09-13 21:48:00,57.6,46.7,29.84,North,0,0.0,-999.0,67,-99.99,,,0.00,Acu-Link.com,2013-09-14 02:48:00,
2013-09-13 22:03:00,57.2,46.7,29.84,North,0,0.0,-999.0,68,-99.99,,,0.00,Acu-Link.com,2013-09-14 03:03:00,
2013-09-13 22:18:00,57.0,46.5,29.84,North,0,0.0,-999.0,68,-99.99,,,0.00,Acu-Link.com,2013-09-14 03:18:00,
2013-09-13 22:33:00,56.3,46.3,29.84,North,0,0.0,-999.0,69,-99.99,,,0.00,Acu-Link.com,2013-09-14 03:33:00,
2013-09-13 22:48:00,55.8,46.5,29.84,North,0,0.0,-999.0,71,-99.99,,,0.00,Acu-Link.com,2013-09-14 03:48:00,
2013-09-13 23:04:00,55.2,46.3,29.84,North,0,0.0,-999.0,72,-99.99,,,0.00,Acu-Link.com,2013-09-14 04:04:00,
2013-09-13 23:19:00,53.8,46.8,29.84,North,0,1.7,-999.0,77,-99.99,,,0.00,Acu-Link.com,2013-09-14 04:19:00,
2013-09-13 23:34:00,53.8,46.4,29.84,North,0,0.0,-999.0,76,-99.99,,,0.00,Acu-Link.com,2013-09-14 04:34:00,
2013-09-13 23:49:00,52.9,46.2,29.84,North,0,0.0,-999.0,78,-99.99,,,0.00,Acu-Link.com,2013-09-14 04:49:00,